SL-16 DEB, 22339

Orbit data source: Space-Track

SL-16 DEB, 22339 is space debris in LEO originally from a launch on Fri, 25 Dec 1992 UTC launched from the Tyuratam Missile And Space Complex (TTMTR). Debris objects in space refer to the collection of defunct objects orbiting the Earth. Examples of debris include non-operational satellites, rocket bodies, and fragments generated from explosions, collisions, or faulty payload assembly.

Loading next visibility...
Identifier
22339, 1992-093AC
Orbit
LEO
Country
Flag of CISCIS
Related business
Manufacturer
Unknown
Mission
Spacecraft
Bus & Motor
Unknown
Mass
Unknown
Launch date (UTC)
1992-12-25 (33 years ago)
Launch vehicle
Unknown
Launch site
Tyuratam Missile And Space Complex (TTMTR)
Object type
Payload
Rocket body
Debris
Shape & HBR
Unknown shape, 0.3 m
Radar Cross Section
Medium (>0.1 m² and <1 m²)

Expand to show TLE details & history
Last TLE update: 6 hours ago

TLE from 6 hours ago
0 SL-16 DEB
1 22339U 92093AC  26037.14862597  .00000231  00000-0  91297-4 0  9990
2 22339  70.8099  96.2478 0125048   3.0085 357.1769 14.35286001711272
Epoch: 2026-02-06T03:34Z
TLE epoch observation values (Epoch: 2026-02-06T03:34:01.283Z)
Latitude
-0.00008°
Longitude
-93.54823°
Altitude
687.188 km
Speed
7.56 km/s
True Right ascension
06h 24m 59s
True Declination
0° 00' 00"
Sunlit
Object was in full shadow at epoch
Visualization orbit readout
Latitude
Unknown
Longitude
Unknown
Altitude
Unknown
Speed
Unknown
Apparent Right ascension
Unknown
Apparent Declination
Unknown
Sunlit
N/A
Visualization observer readout
Local Sidereal Time
12:05:26
Azimuth
Unknown
Elevation
Unknown
Doppler factor
Unknown
Orbital elements
Apogee altitude
861.451 km
Perigee altitude
682.628 km
Semi-major axis
7,150.177 km
Eccentricity
0.0125
Inclination
70.8099°
RAAN
96.2478°
Arg. of periapsis
3.0085°
True anomaly
357.10521°
Mean anomaly
357.1769°
Eccentric anomaly
357.14117°
Mean motion
3.58978 °/min
Orbital period
100.28 mins
BSTAR
0.000091297
Loading maneuver chart data...
Computing Atmospheric mass density...
Loading historical data...
Loading historical data...
Loading historical data...
Loading historical data...
Loading historical data...
Loading historical data...
Loading historical data...

Documentation

Showing up to 5 results
|